Ft. Stewart, GA

9:54 PM EDT on March 24, 2017 (GMT -0400)
Wright Army Air Field

Weather History for KLHW - February, 2015

Change the Weather History Date:

Friday, February 20, 2015

  Actual Average Record
Temperature  
Mean Temperature 30 °F -  
Max Temperature 42 °F 69 °F 82 °F (1991)
Min Temperature 19 °F 43 °F 19 °F (2015)
Degree Days  
Heating Degree Days 34    
Moisture  
Dew Point 11 °F    
Average Humidity 47    
Maximum Humidity 83    
Minimum Humidity 23    
Precipitation  
Precipitation 0.00 in - - ()
Sea Level Pressure  
Sea Level Pressure 30.42 in    
Wind  
Wind Speed 3 mph (NE)    
Max Wind Speed 9 mph    
Max Gust Speed -    
Visibility 10 miles    
Events      
Averages and records for this station are not official NWS values.
T = Trace of Precipitation, MM = Missing Value Source: NWS Daily Summary

Daily Weather History Graph

Daily Weather History Graph

Search for Another Location

Airport or City:

Trip Planner

Search our weather history database for the weather conditions in past years. The results will help you decide how hot, cold, wet, or windy it might be!

Date:

Astronomy

Feb. 20, 2015 Rise Set
Actual Time 7:03 AM EST 6:16 PM EST
Civil Twilight 6:38 AM EST 6:41 PM EST
Nautical Twilight 6:10 AM EST 7:10 PM EST
Astronomical Twilight 5:42 AM EST 7:38 PM EST
Moon 8:03 AM EST (2/20) 8:29 PM EST (2/20)
Length of Visible Light 12h 02m
Length of Day
11h 13m
Waxing Crescent, 4% of the Moon is Illuminated
Feb 20
Waxing Crescent
Feb 25
First Quarter
Mar 5
Full
Mar 13
Last Quarter
Mar 20
New

Hourly Weather History & Observations

Time (EST) Temp. Windchill Dew Point Humidity Pressure Visibility Wind Dir Wind Speed Gust Speed Precip Events Conditions
12:58 AM 24.8 °F 19.1 °F 1.9 °F 37% 30.34 in 10.0 mi NNW 4.6 mph - N/A   Clear
1:58 AM 24.4 °F - 3.0 °F 40% 30.35 in 10.0 mi WNW 1.2 mph - N/A   Clear
2:58 AM 22.6 °F - 6.1 °F 49% 30.35 in 10.0 mi Calm Calm - N/A   Clear
3:58 AM 21.9 °F - 4.8 °F 48% 30.35 in 10.0 mi Calm Calm - N/A   Clear
4:58 AM 19.6 °F - 8.4 °F 62% 30.38 in 10.0 mi NNW 2.3 mph - N/A   Clear
5:58 AM 20.7 °F - 7.9 °F 58% 30.39 in 10.0 mi Calm Calm - N/A   Scattered Clouds
6:58 AM 22.5 °F 17.8 °F 6.3 °F 50% 30.42 in 10.0 mi NNW 3.5 mph - N/A   Overcast
7:58 AM 23.9 °F 16.8 °F 5.7 °F 46% 30.45 in 10.0 mi NNW 5.8 mph - N/A   Mostly Cloudy
8:58 AM 26.2 °F 17.1 °F 5.4 °F 41% 30.47 in 10.0 mi NNE 9.2 mph - N/A   Scattered Clouds
9:58 AM 27.7 °F 20.4 °F 4.3 °F 37% 30.49 in 10.0 mi North 6.9 mph - N/A   Overcast
10:58 AM 30.7 °F - 3.4 °F 31% 30.50 in 10.0 mi Variable 2.3 mph - N/A   Clear
11:58 AM 34.9 °F 29.9 °F 4.8 °F 28% 30.50 in 10.0 mi North 5.8 mph - N/A   Clear
12:58 PM 36.5 °F - 3.6 °F 25% 30.46 in 10.0 mi Calm Calm - N/A   Overcast
1:58 PM 39.4 °F - 4.1 °F 23% 30.43 in 10.0 mi Variable 2.3 mph - N/A   Scattered Clouds
2:58 PM 41.0 °F - 5.5 °F 23% 30.41 in 10.0 mi SE 2.3 mph - 0.00 in   Clear
3:58 PM 42.6 °F - 6.8 °F 23% 30.41 in 10.0 mi Variable 1.2 mph - N/A   Clear
4:58 PM 41.9 °F 37.5 °F 10.4 °F 28% 30.42 in 10.0 mi East 6.9 mph - N/A   Clear
5:58 PM 38.7 °F 33.6 °F 20.1 °F 47% 30.43 in 10.0 mi ESE 6.9 mph - N/A   Clear
6:58 PM 35.2 °F 28.8 °F 23.5 °F 62% 30.44 in 10.0 mi ESE 8.1 mph - N/A   Clear
7:58 PM 32.5 °F 27.1 °F 24.1 °F 71% 30.45 in 10.0 mi East 5.8 mph - N/A   Clear
8:58 PM 31.5 °F 26.8 °F 24.1 °F 74% 30.46 in 10.0 mi ENE 4.6 mph - N/A   Clear
9:58 PM 32.7 °F - 25.7 °F 75% 30.45 in 10.0 mi Variable 2.3 mph - N/A   Overcast
10:58 PM 32.2 °F 28.9 °F 26.2 °F 79% 30.43 in 10.0 mi ESE 3.5 mph - N/A   Clear
11:58 PM 30.6 °F - 25.9 °F 83% 30.42 in 10.0 mi ENE 2.3 mph - N/A   Clear